Flag for Germany Weather past 2 weeks in Viernheim, Hesse, Germany

Now
57 °F

Sunny.


Feels Like: 56 °F
Forecast: 44 / 66 °F
Wind: 6 mph from West

Location: Baden Wurttemberg - Neuostheim

Current Time: Aug 23, 2014 at 8:28:21 PM

Latest Report: Aug 23, 2014 at 7:50 PM


Visibility: 10 mi

Pressure: 29.98 "Hg

Humidity: 82%

Dew point: 52 °F

Location of ViernheimLocation

Historic Weather in Viernheim — Graph

°F

Viernheim temperature yesterday

Maximum temperature yesterday: 70 °F (at 1:50 PM)
Minimum temperature yesterday: 50 °F (at 5:20 AM)
Average temperature yesterday: 63 °F

Past Weeks' High & Low Weather Summary

 TemperatureHumidityPressure
High81 °F (Aug 8, 7:50 PM)100% (Aug 10, 7:50 AM)30.12 "Hg (Aug 10, 7:50 AM)
Low48 °F (Aug 20, 5:50 AM)33% (Aug 21, 4:20 PM)29.65 "Hg (Aug 13, 1:50 PM)
Average64 °F65%29.93 "Hg
* Reported Aug 8 7:20 PM — Aug 23 7:20 PM, Viernheim, Weather by CustomWeather, © 2014

Note: Actual official high and low records may vary slightly from our data, if they occured in-between our weather recording intervals... More about our weather records

Advertising

Viernheim weather history for previous 24 hours

 ConditionsComfort  
Time TempWeatherWind HumidityBarometerVisibility
7:20 PM
Aug 23
57 °FPassing clouds.6 mph82%29.98 "HgN/A
6:50 PM57 °FScattered showers. Partly sunny.3 mph77%29.98 "HgN/A
6:20 PM63 °FScattered showers. Partly sunny.8 mph64%29.95 "HgN/A
5:50 PM63 °FPassing clouds.9 mph64%29.95 "HgN/A
5:20 PM63 °FPassing clouds.9 mph64%29.95 "HgN/A
4:50 PM61 °FPassing clouds.9 mph72%29.95 "HgN/A
4:20 PM61 °FScattered showers. Broken clouds.6 mph72%29.95 "HgN/A
3:50 PM61 °FScattered showers. Broken clouds.10 mph68%29.98 "HgN/A
3:20 PM61 °FBroken clouds.13 mph68%29.98 "HgN/A
2:50 PM63 °FBroken clouds.10 mph64%29.98 "HgN/A
2:20 PM63 °FBroken clouds.8 mph68%29.98 "HgN/A
1:50 PM64 °FPartly sunny.8 mph64%29.98 "HgN/A
1:20 PM63 °FPartly sunny.7 mph68%29.98 "HgN/A
12:50 PM63 °FBroken clouds.7 mph64%29.98 "HgN/A
12:20 PM64 °FBroken clouds.7 mph64%29.98 "HgN/A
11:50 AM63 °FPartly sunny.7 mph68%29.98 "HgN/A
11:20 AM61 °FPartly sunny.6 mph72%29.98 "HgN/A
10:50 AM61 °FScattered showers. Partly sunny.5 mph77%29.98 "HgN/A
10:20 AM61 °FScattered showers. Partly sunny.6 mph68%29.98 "HgN/A
9:50 AM61 °FPassing clouds.5 mph68%29.98 "HgN/A
9:20 AM61 °FPassing clouds.5 mph68%29.98 "HgN/A
8:50 AM61 °FPassing clouds.5 mph68%29.95 "HgN/A
8:20 AM59 °FSunny.5 mph72%29.98 "Hg10 mi
7:50 AM59 °FSunny.6 mph72%29.95 "Hg10 mi
7:20 AM57 °FClear.2 mph82%29.95 "Hg10 mi
9:50 PM
Aug 22
64 °FClear.3 mph52%29.95 "Hg10 mi
9:20 PM64 °FPassing clouds.5 mph49%29.95 "HgN/A
8:50 PM66 °FPassing clouds.5 mph46%29.92 "HgN/A
8:20 PM66 °FPassing clouds.6 mph46%29.92 "HgN/A
Weather by CustomWeather, © 2014

See weather overviewHow to use our weather pages